Weather History for Wilmington, NC

Change the Weather History Date:

Monday, April 28, 2014

  Actual Average Record
Temperature  
Mean Temperature 72 °F 66 °F  
Max Temperature 84 °F 77 °F 90 °F (1981)
Min Temperature 59 °F 55 °F 40 °F (1993)
Degree Days  
Heating Degree Days 0 2  
Month to date heating degree days 85 127  
Since 1 July heating degree days 2432 2379  
Cooling Degree Days 7 3  
Month to date cooling degree days 85 59  
Year to date cooling degree days 92 80  
Growing Degree Days 22 (Base 50)    
Moisture  
Dew Point 64 °F    
Average Humidity 76    
Maximum Humidity 97    
Minimum Humidity 55    
Precipitation  
Precipitation 0.00 in 0.09 in 1.47 in (1999)
Month to date precipitation 4.44 2.63  
Year to date precipitation 16.29 14.22  
Snow  
Snow 0.00 in 0.00 in - ()
Month to date snowfall 0.0 0.0  
Since 1 July snowfall 1.0 1.7  
Snow Depth 0.00 in    
Sea Level Pressure  
Sea Level Pressure 29.96 in    
Wind  
Wind Speed 8 mph (South)    
Max Wind Speed 20 mph    
Max Gust Speed 26 mph    
Visibility 10 miles    
Events      
T = Trace of Precipitation, MM = Missing Value Source: NWS Daily Summary

Daily Weather History Graph

Daily Weather History Graph

Search for Another Location

Airport:

Trip Planner

Search our weather history database for the weather conditions in past years. The results will help you decide how hot, cold, wet, or windy it might be!

Date:

Astronomy

Apr. 28, 2014 Rise Set
Actual Time 6:25 AM EDT 7:53 PM EDT
Civil Twilight 5:58 AM EDT 8:20 PM EDT
Nautical Twilight 5:26 AM EDT 8:52 PM EDT
Astronomical Twilight 4:53 AM EDT 9:25 PM EDT
Moon 5:59 AM EDT (4/28) 7:30 PM EDT (4/28)
Length of Visible Light 14h 21m
Length of Day
13h 28m
Waning Crescent, 0% of the Moon is Illuminated
Apr 28
Waning Crescent
Apr 29
New
May 6
First Quarter
May 14
Full
May 21
Last Quarter

Hourly Weather History & Observations

Time (EDT) Temp. Heat Index Dew Point Humidity Pressure Visibility Wind Dir Wind Speed Gust Speed Precip Events Conditions
12:53 AM 62.6 °F - 57.2 °F 82% 30.00 in 10.0 mi ENE 3.5 mph - N/A   Clear
1:53 AM 62.6 °F - 57.2 °F 82% 30.00 in 10.0 mi Calm Calm - N/A   Clear
2:53 AM 61.0 °F - 57.9 °F 90% 29.98 in 10.0 mi East 4.6 mph - N/A   Clear
3:53 AM 62.6 °F - 59.0 °F 88% 29.97 in 10.0 mi Calm Calm - N/A   Clear
4:53 AM 60.1 °F - 57.0 °F 90% 29.99 in 10.0 mi Calm Calm - N/A   Clear
5:53 AM 60.8 °F - 57.2 °F 88% 29.98 in 10.0 mi Calm Calm - N/A   Clear
6:53 AM 61.0 °F - 59.0 °F 93% 30.00 in 7.0 mi Calm Calm - N/A   Clear
7:53 AM 69.1 °F - 64.9 °F 87% 29.99 in 10.0 mi SE 3.5 mph - N/A   Clear
8:53 AM 71.1 °F - 64.9 °F 81% 30.00 in 10.0 mi SSE 3.5 mph - N/A   Mostly Cloudy
9:53 AM 75.2 °F - 64.4 °F 69% 30.00 in 10.0 mi South 5.8 mph - N/A   Mostly Cloudy
10:53 AM 78.1 °F - 64.9 °F 64% 29.99 in 10.0 mi SSW 8.1 mph - N/A   Unknown
11:53 AM 81.0 °F 82.7 °F 64.9 °F 58% 29.98 in 10.0 mi South 9.2 mph 21.9 mph N/A   Mostly Cloudy
12:53 PM 82.0 °F 84.1 °F 66.0 °F 58% 29.96 in 10.0 mi South 12.7 mph - N/A   Partly Cloudy
1:53 PM 82.0 °F 83.8 °F 64.9 °F 56% 29.95 in 10.0 mi South 17.3 mph - N/A   Partly Cloudy
2:53 PM 82.0 °F 84.1 °F 66.0 °F 58% 29.94 in 10.0 mi SSW 15.0 mph 23.0 mph N/A   Scattered Clouds
3:53 PM 82.0 °F 84.1 °F 66.0 °F 58% 29.92 in 10.0 mi SSW 16.1 mph 21.9 mph N/A   Partly Cloudy
4:53 PM 80.6 °F 82.7 °F 66.2 °F 61% 29.90 in 10.0 mi SSW 15.0 mph 25.3 mph N/A   Scattered Clouds
6:53 PM 77.0 °F - 66.0 °F 69% 29.90 in 10.0 mi South 10.4 mph - N/A   Partly Cloudy
7:53 PM 75.0 °F - 66.0 °F 73% 29.91 in 10.0 mi South 8.1 mph - N/A   Mostly Cloudy
8:53 PM 73.0 °F - 66.0 °F 79% 29.91 in 10.0 mi South 12.7 mph - N/A   Clear
9:53 PM 73.0 °F - 66.9 °F 81% 29.91 in 10.0 mi South 10.4 mph - N/A   Clear
10:53 PM 73.4 °F - 68.0 °F 83% 29.90 in 10.0 mi South 11.5 mph - N/A   Clear
11:53 PM 73.9 °F - 69.1 °F 85% 29.91 in 10.0 mi SSW 11.5 mph - N/A   Scattered Clouds